User: anonymous   Login
Location: Stull Observatory
(42.2506°N, 77.7903°W)
Time: 15:50:26
(UTC-04:00)
Language:

Abrixas rocket - Orbit

View from above orbital plane
View from above orbital plane
View from above satellite
View from above satellite

Ground track
Ground track

The orbit data is extracted from the following two-line orbital elements,

1 25723U 99022C   15117.13742817  .00013024  00000-0  33271-3 0  9998
2 25723 048.4221 336.2209 0015054 255.0139 250.5872 15.39589877885379
Epoch (UTC): 27 April 2015 03:17:53
Eccentricity: 0.0015054
inclination: 48.4221°
perigee height: 437 km
apogee height: 457 km
right ascension of ascending node: 336.2209°
argument of perigee: 255.0139°
revolutions per day: 15.39589877
mean anomaly at epoch: 250.5872°
orbit number at epoch: 88537

The dashed part of the orbit path shows where the satellite is in the earth's shadow,  

DLR